Location: Austin
(30.3000°N, 97.7500°W)
Time: 05:40:45
(UTC-05:00)

Cosmos 2233 Rocket - Pass Details

Date: 16 June 2025
Orbit: 953 x 988 km, 82.9° (Epoch: 07 July)

Event Time Altitude Azimuth Distance (km) Brightness Sun altitude
Rises 00:03:46 0° 349° (N) 3,701 8.1 -32.3°
Reaches altitude 10° 00:06:19 10° 346° (NNW) 2,750 7.2 -32.6°
Enters shadow 00:12:00 59° 292° (WNW) 1,130 4.4 -33.0°
